When you browse on this site, cookies collect data to enhance your experience and personalize the content and advertising you see.
Visit our Privacy Policy to learn more. By continuing to use the site, you agree to this use of cookies and data.
  • In France
  • List of Countries
  • For 7 days
  • Water Temperature
  • Weather Map
  • Weather Widgets
  • user-avatar
    Login

    Hourly Weather Chipping Sodbury

    Today, 23 August, Friday

    Time Temperature Precipitation Wind Pressure Humidity
    00:00 +15°C° 0 mm 2 mps 759 mmHg 96%
    01:00 +15°C° 0 mm 2 mps 759 mmHg 96%
    02:00 +15°C° 0 mm 1 mps 759 mmHg 96%
    03:00 +14°C° 0 mm 1 mps 759 mmHg 96%
    04:00 +15°C° 0 mm 1 mps 759 mmHg 96%
    05:00 +15°C° 0 mm 1 mps 758 mmHg 96%
    06:00 +15°C° 0 mm 1 mps 758 mmHg 95%
    07:00 +16°C° 0 mm 1 mps 759 mmHg 90%
    08:00 +18°C° 0 mm 2 mps 759 mmHg 84%
    09:00 +19°C° 0 mm 2 mps 759 mmHg 78%
    10:00 +21°C° 0 mm 2 mps 759 mmHg 73%
    11:00 +23°C° 0 mm 2 mps 758 mmHg 68%
    12:00 +24°C° 0 mm 2 mps 758 mmHg 63%
    13:00 +24°C° 0 mm 2 mps 758 mmHg 61%
    14:00 +25°C° 0 mm 2 mps 758 mmHg 59%
    15:00 +25°C° 0 mm 2 mps 758 mmHg 56%
    16:00 +24°C° 0 mm 2 mps 757 mmHg 60%
    17:00 +23°C° 0 mm 2 mps 757 mmHg 64%
    18:00 +21°C° 0 mm 3 mps 756 mmHg 68%
    19:00 +20°C° 0 mm 2 mps 756 mmHg 68%
    20:00 +18°C° 0 mm 2 mps 756 mmHg 69%
    21:00 +16°C° 0 mm 1 mps 756 mmHg 70%
    22:00 +16°C° 0 mm 1 mps 756 mmHg 70%
    23:00 +15°C° 0 mm 1 mps 756 mmHg 71%

    Tomorrow, 24 August, Saturday

    Time Temperature Precipitation Wind Pressure Humidity
    00:00 +14°C° 0 mm 1 mps 756 mmHg 72%
    01:00 +14°C° 0 mm 1 mps 755 mmHg 71%
    02:00 +14°C° 0 mm 1 mps 755 mmHg 71%
    03:00 +13°C° 0 mm 1 mps 755 mmHg 70%
    04:00 +13°C° 0 mm 1 mps 755 mmHg 70%
    05:00 +13°C° 0 mm 1 mps 755 mmHg 69%
    06:00 +14°C° 0 mm 1 mps 754 mmHg 69%
    07:00 +16°C° 0 mm 2 mps 754 mmHg 66%
    08:00 +18°C° 0 mm 2 mps 754 mmHg 63%
    09:00 +20°C° 0 mm 3 mps 755 mmHg 61%
    10:00 +22°C° 0 mm 3 mps 754 mmHg 58%
    11:00 +25°C° 0 mm 4 mps 754 mmHg 56%
    12:00 +26°C° 0 mm 4 mps 754 mmHg 53%
    13:00 +27°C° 0 mm 4 mps 754 mmHg 52%
    14:00 +27°C° 0 mm 4 mps 754 mmHg 51%
    15:00 +27°C° 0 mm 4 mps 753 mmHg 51%
    16:00 +26°C° 0 mm 4 mps 753 mmHg 55%
    17:00 +25°C° 0 mm 3 mps 753 mmHg 60%
    18:00 +24°C° 0 mm 2 mps 752 mmHg 65%
    19:00 +23°C° 0 mm 2 mps 753 mmHg 67%
    20:00 +20°C° 0 mm 2 mps 753 mmHg 69%
    21:00 +19°C° 0 mm 2 mps 753 mmHg 72%
    22:00 +18°C° 0 mm 2 mps 753 mmHg 73%
    23:00 +17°C° 0 mm 2 mps 753 mmHg 74%

    Day after tomorrow, 25 August, Sunday

    Time Temperature Precipitation Wind Pressure Humidity
    00:00 +17°C° 0 mm 2 mps 753 mmHg 76%
    01:00 +17°C° 0 mm 2 mps 753 mmHg 75%
    02:00 +17°C° 0 mm 2 mps 752 mmHg 74%
    03:00 +17°C° 0 mm 2 mps 752 mmHg 73%
    04:00 +17°C° 0 mm 2 mps 752 mmHg 75%
    05:00 +17°C° 0 mm 2 mps 752 mmHg 77%
    06:00 +17°C° 0 mm 2 mps 752 mmHg 78%
    07:00 +19°C° 0 mm 2 mps 753 mmHg 73%
    08:00 +21°C° 0 mm 2 mps 753 mmHg 69%
    09:00 +24°C° 0 mm 3 mps 753 mmHg 64%
    10:00 +25°C° 0 mm 3 mps 754 mmHg 60%
    11:00 +27°C° 0 mm 3 mps 754 mmHg 56%
    12:00 +28°C° 0 mm 3 mps 754 mmHg 51%
    13:00 +29°C° 0 mm 3 mps 754 mmHg 50%
    14:00 +29°C° 0 mm 3 mps 754 mmHg 49%
    15:00 +29°C° 0 mm 3 mps 754 mmHg 48%
    16:00 +28°C° 0 mm 3 mps 754 mmHg 53%
    17:00 +27°C° 0 mm 2 mps 754 mmHg 57%
    18:00 +26°C° 0 mm 2 mps 754 mmHg 62%
    19:00 +24°C° 0 mm 1 mps 754 mmHg 65%
    20:00 +23°C° 0 mm 1 mps 754 mmHg 68%
    21:00 +21°C° 0 mm 1 mps 755 mmHg 71%
    22:00 +21°C° 0 mm 1 mps 755 mmHg 72%
    23:00 +20°C° 0 mm 1 mps 754 mmHg 73%

    26 August, Monday

    Time Temperature Precipitation Wind Pressure Humidity
    00:00 +20°C° 0 mm 1 mps 754 mmHg 73%
    01:00 +19°C° 0 mm 1 mps 754 mmHg 75%
    02:00 +19°C° 0 mm 1 mps 754 mmHg 77%
    03:00 +18°C° 0 mm 1 mps 754 mmHg 79%
    04:00 +18°C° 0 mm 1 mps 754 mmHg 79%
    05:00 +18°C° 0 mm 1 mps 754 mmHg 79%
    06:00 +18°C° 0 mm 1 mps 754 mmHg 79%
    07:00 +20°C° 0 mm 1 mps 754 mmHg 74%
    08:00 +21°C° 0 mm 2 mps 755 mmHg 68%
    09:00 +24°C° 0 mm 2 mps 755 mmHg 62%
    10:00 +26°C° 0 mm 2 mps 755 mmHg 58%
    11:00 +27°C° 0 mm 3 mps 754 mmHg 55%
    12:00 +29°C° 0 mm 3 mps 754 mmHg 51%
    13:00 +29°C° 0 mm 3 mps 754 mmHg 50%
    14:00 +29°C° 0 mm 3 mps 754 mmHg 49%
    15:00 +30°C° 0 mm 2 mps 753 mmHg 47%
    16:00 +29°C° 0 mm 2 mps 753 mmHg 51%
    17:00 +28°C° 0 mm 2 mps 753 mmHg 55%
    18:00 +27°C° 0 mm 2 mps 753 mmHg 59%
    19:00 +25°C° 0 mm 2 mps 753 mmHg 61%
    20:00 +24°C° 0 mm 2 mps 753 mmHg 63%
    21:00 +21°C° 0 mm 2 mps 753 mmHg 65%
    22:00 +20°C° 0 mm 2 mps 753 mmHg 68%
    23:00 +20°C° 0 mm 2 mps 753 mmHg 72%

    27 August, Tuesday

    Time Temperature Precipitation Wind Pressure Humidity
    00:00 +19°C° 0 mm 2 mps 753 mmHg 75%
    01:00 +18°C° 0 mm 2 mps 752 mmHg 77%
    02:00 +18°C° 0 mm 2 mps 752 mmHg 79%
    03:00 +17°C° 0 mm 2 mps 752 mmHg 81%
    04:00 +17°C° 0 mm 2 mps 752 mmHg 82%
    05:00 +16°C° 0 mm 2 mps 752 mmHg 82%
    06:00 +16°C° 0 mm 2 mps 752 mmHg 83%
    07:00 +18°C° 0 mm 2 mps 752 mmHg 78%
    08:00 +20°C° 0 mm 3 mps 752 mmHg 72%
    09:00 +22°C° 0 mm 3 mps 752 mmHg 66%
    10:00 +24°C° 0 mm 3 mps 752 mmHg 63%
    11:00 +26°C° 0 mm 3 mps 752 mmHg 59%
    12:00 +27°C° 0 mm 3 mps 752 mmHg 55%
    13:00 +28°C° 0 mm 3 mps 751 mmHg 54%
    14:00 +28°C° 0 mm 3 mps 751 mmHg 53%
    15:00 +29°C° 0 mm 3 mps 750 mmHg 52%
    16:00 +28°C° 0 mm 3 mps 750 mmHg 56%
    17:00 +27°C° 0 mm 3 mps 750 mmHg 60%
    18:00 +26°C° 0 mm 2 mps 750 mmHg 64%
    19:00 +25°C° 0 mm 2 mps 750 mmHg 66%
    20:00 +23°C° 0 mm 2 mps 750 mmHg 68%
    21:00 +21°C° 0 mm 2 mps 750 mmHg 69%
    22:00 +20°C° 0 mm 2 mps 750 mmHg 75%
    23:00 +20°C° 0 mm 2 mps 750 mmHg 81%

    28 August, Wednesday

    Time Temperature Precipitation Wind Pressure Humidity
    00:00 +19°C° 0 mm 2 mps 750 mmHg 87%
    01:00 +19°C° 0 mm 2 mps 750 mmHg 88%
    02:00 +18°C° 0 mm 2 mps 749 mmHg 90%
    03:00 +18°C° 0 mm 2 mps 749 mmHg 92%
    04:00 +18°C° 0 mm 2 mps 749 mmHg 92%
    05:00 +18°C° 0 mm 2 mps 749 mmHg 92%
    06:00 +18°C° 0 mm 2 mps 749 mmHg 91%
    07:00 +20°C° 0 mm 3 mps 749 mmHg 86%
    08:00 +21°C° 0 mm 3 mps 749 mmHg 80%
    09:00 +24°C° 0 mm 3 mps 749 mmHg 74%
    10:00 +26°C° 0 mm 3 mps 749 mmHg 69%
    11:00 +27°C° 0 mm 3 mps 749 mmHg 63%
    12:00 +29°C° 0 mm 3 mps 749 mmHg 58%
    13:00 +29°C° 0.1 mm 2 mps 748 mmHg 56%
    14:00 +29°C° 0.1 mm 2 mps 748 mmHg 54%
    15:00 +30°C° 0.1 mm 2 mps 748 mmHg 52%
    16:00 +29°C° 0.2 mm 2 mps 748 mmHg 57%
    17:00 +28°C° 0.2 mm 2 mps 748 mmHg 62%
    18:00 +27°C° 0.2 mm 1 mps 748 mmHg 66%
    19:00 +25°C° 0.2 mm 1 mps 748 mmHg 72%
    20:00 +24°C° 0.2 mm 1 mps 748 mmHg 78%
    21:00 +22°C° 0.2 mm 1 mps 749 mmHg 84%
    22:00 +21°C° 0.1 mm 1 mps 749 mmHg 86%
    23:00 +21°C° 0.1 mm 1 mps 749 mmHg 89%
    Show more